Other Public Products
Issued by NWS Grand Forks, ND

Home | Current Version | Previous Version | Text Only | Print | Product List | Glossary On
Versions: 1 2 3 4 5 6 7 8 9 10 11 12 13 14 15 16 17 18 19 20 21 22 23 24 25 26 27 28 29 30 31 32 33 34 35 36 37 38 39 40 41 42 43 44 45 46 47 48 49 50
000
FPUS83 KFGF 181831
OPUFGF
PRAIRIE TO PINES WEATHER ROUNDUP
NATIONAL WEATHER SERVICE EASTERN NORTH DAKOTA/GRAND FORKS ND
100 PM CDT FRI APR 18 2014

 **SATELLITE DATA USED TO AUGMENT SKY COVER AT AUTOMATED STATIONS**
 *****  WEATHER ACROSS EASTERN NORTH DAKOTA  *****

CITY           SKY/WX    TMP DP  RH WIND       PRES   REMARKS
GRAND FORKS    PTSUNNY   49  22  34 SE22G30   30.20F
6HR MIN TEMP:  31; 6HR MAX TEMP:  49;

GRAND FORKS AF MOSUNNY   49  22  34 SE24G33   30.19F
GRAND CITY NWS   N/A     48 N/A N/A SE18        N/A
BUXTON           N/A     47  28  48 SE22        N/A
DEVILS LAKE    CLOUDY    45  25  45 SE23G33   30.06F
6HR MIN TEMP:  30; 6HR MAX TEMP:  45;

FARGO          CLOUDY    46  26  45 SE16G29   30.19F
6HR MIN TEMP:  35; 6HR MAX TEMP:  46; 6HR PCP: TRACE;

WAHPETON ARPT  PTCLDY    46  23  39 SE23G32   30.19F
$$

 *****  WEATHER ACROSS CENTRAL AND WESTERN NORTH DAKOTA  *****

CITY           SKY/WX    TMP DP  RH WIND       PRES   REMARKS
JAMESTOWN      MOSUNNY   48  25  40 SE29G38   30.04F
6HR MIN TEMP:  31; 6HR MAX TEMP:  48;

BISMARCK       MOSUNNY   54  31  41 SE23G33   29.90F
6HR MIN TEMP:  35; 6HR MAX TEMP:  54;

MINOT          LGT RAIN  46  24  42 SE30G38   29.92F
6HR MIN TEMP:  30; 6HR MAX TEMP:  47; 6HR PCP: TRACE;

MINOT AFB      PTSUNNY   45  28  51 SE30G38   29.92F
6HR MIN TEMP:  30; 6HR MAX TEMP:  45;

GARRISON         N/A     49  27  42 SE26G38   29.89F
6HR MIN TEMP:  33; 6HR MAX TEMP:  49;

WILLISTON      CLOUDY    48  29  47 SE16G24   29.77F
6HR MIN TEMP:  35; 6HR MAX TEMP:  48;

DICKINSON      MOSUNNY   52  32  46 SE23G31   29.77F
6HR MIN TEMP:  30; 6HR MAX TEMP:  55;

HETTINGER      PTSUNNY   53  34  48 SE22      29.78F
6HR MIN TEMP:  29; 6HR MAX TEMP:  53;

$$

 *****  OTHER OBSERVATIONS NORTHEAST NORTH DAKOTA  *****

CITY           SKY/WX    TMP DP  RH WIND       PRES   REMARKS
WALHALLA         N/A     45  16  31 SE26G33   30.18F
LANGDON        FAIR      45  19  36 SE32G41   30.12F
CAVALIER       FAIR      45  21  39 SE15G28   30.19F
GRAFTON        FAIR      46  27  46 SE18G24   30.20F
CANDO          FAIR      45  25  45 SE23G41   30.06F
FORT TOTTEN      N/A     46  24  41 SE17      29.95S
ROLLA          CLOUDY    41  21  45 SE26G37   30.06F
RUGBY          FAIR      45  28  53 SE30G41   29.99F
 ***** THE ABOVE OBSERVATIONS ARE NON NWS ARE NOT QUALITY
        CONTROLLED AND MAY MIS-REPORT RAIN FOR SNOW...
$$

 *****  OTHER OBSERVATIONS SOUTHEAST NORTH DAKOTA *****

CITY           SKY/WX    TMP DP  RH WIND       PRES   REMARKS
COOPERSTOWN    CLOUDY    43  32  65 SE36G45   30.08F
VALLEY CITY    MOCLDY    46  25  42 SE26G37   30.08F
OAKES          FAIR      48  32  53 E31G39    30.03F
GWINNER        CLEAR     48  32  53 SE36G43   30.08F
SHEYENNE NWR     N/A     47  21  35 SE24      29.95S
BUFFALO          N/A     46  24  42 E32         N/A
WYNDMERE       NOT AVBL
 ***** THE ABOVE OBSERVATIONS ARE NON NWS ARE NOT QUALITY
       CONTROLLED AND MAY MIS-REPORT RAIN FOR SNOW...
$$

  *****  WEATHER ACROSS NORTHERN MINNESOTA  *****

CITY           SKY/WX    TMP DP  RH WIND       PRES   REMARKS
FLAG ISLAND    SUNNY     36  19  51 S3        30.32F
WARROAD        SUNNY     45  27  49 E10       30.30F
ROSEAU         SUNNY     46  16  29 E12G20    30.27F
HALLOCK        CLOUDY    46  21  36 SE15G22   30.21F
THF RVR FALLS  MOSUNNY   46  23  39 SE16G24   30.23F
6HR MIN TEMP:  27; 6HR MAX TEMP:  46;

HALSTAD          N/A     47  25  41 SE24        N/A
FOSSTON        MOSUNNY   48  23  37 SE14G20   30.23F
BAUDETTE       SUNNY     43  17  35 VRB6G16   30.32F
6HR MIN TEMP:  20; 6HR MAX TEMP:  44;

WASKISH        SUNNY     48  18  29 SE9       30.30F
CROOKSTON      MOSUNNY   48  21  34 SE17G28   30.22F
$$
  *****  WEATHER ACROSS CENTRAL AND WEST MINNESOTA  *****

CITY           SKY/WX    TMP DP  RH WIND       PRES   REMARKS
BEMIDJI        MOSUNNY   46  18  32 SE15G21   30.27F
PARK RAPIDS    CLOUDY    43  19  38 SE13      30.27F
6HR MIN TEMP:  28; 6HR MAX TEMP:  43;

WADENA         MOSUNNY   43  25  49 SE15      30.27F
DETROIT LAKES  PTSUNNY   45  27  49 SE17G24   30.23F
MOORHEAD       PTSUNNY   46  25  42 SE21G28   30.20F
FERGUS FALLS   PTSUNNY   45  19  36 SE20G25   30.19F
ELBOW LAKE     MOCLDY    44  24  46 SE16G28   30.21F
6HR MIN TEMP:  32; 6HR MAX TEMP:  44;

MORRIS MN      CLOUDY    43  30  61 SE23      30.22F
STAPLES        PTSUNNY   41  23  48 SE14      30.30S
WHEATON        PTSUNNY   45  30  57 E26G37    30.20F
$$
  *****  WEATHER ELSEWHERE ACROSS MINNESOTA  *****

CITY           SKY/WX    TMP DP  RH WIND       PRES   REMARKS
DULUTH         MOSUNNY   36  18  48 SE9       30.37S
6HR MIN TEMP:  21; 6HR MAX TEMP:  38;

INTRNTL FALLS  SUNNY     42  14  32 E12       30.35F
6HR MIN TEMP:  18; 6HR MAX TEMP:  42;

ELY            SUNNY     37  16  41 N6        30.37F
CLOQUET        SUNNY     39  12  33 SE7       30.37S
BRAINERD       CLOUDY    47  22  37 SE8       30.33F
6HR MIN TEMP:  33; 6HR MAX TEMP:  48;

HIBBING        SUNNY     44  13  28 VRB3      30.35F
6HR MIN TEMP:  18; 6HR MAX TEMP:  44;

ALEXANDRIA     CLOUDY    40  28  62 SE14G26   30.28F
6HR MIN TEMP:  31; 6HR MAX TEMP:  41;

SAINT CLOUD    PTSUNNY   40  25  55 S14       30.34F
6HR MIN TEMP:  26; 6HR MAX TEMP:  40;

MINNEAPOLIS    MOSUNNY   48  29  47 SE13      30.36F
6HR MIN TEMP:  29; 6HR MAX TEMP:  48;

$$

  *****  WEATHER ACROSS SOUTH DAKOTA  *****

CITY           SKY/WX    TMP DP  RH WIND       PRES   REMARKS
SIOUX FALLS    MOSUNNY   60  34  37 SE23G32   30.12F
6HR MIN TEMP:  34; 6HR MAX TEMP:  60;

BROOKINGS      NOT AVBL
WATERTOWN      MOSUNNY   49  35  58 SE18G30   30.07F
6HR MIN TEMP:  34; 6HR MAX TEMP:  49;

HURON          MOSUNNY   62  37  39 S28G41    29.95F
6HR MIN TEMP:  37; 6HR MAX TEMP:  62;

SISSETON         N/A     44  33  65 SE30G36   30.15F
ABERDEEN       MOSUNNY   56  36  47 SE24G36   29.99F
6HR MIN TEMP:  35; 6HR MAX TEMP:  56;

MITCHELL       SUNNY     66  40  38 S33G47    29.99F
PIERRE         PTSUNNY   64  40  41 SE18G25   29.83F
6HR MIN TEMP:  35; 6HR MAX TEMP:  64;

MOBRIDGE       MOSUNNY   58  35  42 S24G30    29.85F
RAPID CITY     MOSUNNY   74  39  28 S18       29.74F
6HR MIN TEMP:  33; 6HR MAX TEMP:  74;

$$

  *****  SOME WEATHER IN NEARBY STATES *****

CITY           SKY/WX    TMP DP  RH WIND       PRES   REMARKS
GLASGOW MT     CLOUDY    50  32  50 E15       29.64S
6HR MIN TEMP:  40; 6HR MAX TEMP:  50; 6HR PCP: TRACE;

GREAT FALLS MT PTSUNNY   54  32  43 SW23G33   29.68S
6HR MIN TEMP:  44; 6HR MAX TEMP:  54;

CHEYENNE WY    CLOUDY    64  27  24 S16G25    29.98F
6HR MIN TEMP:  35; 6HR MAX TEMP:  65;

SCOTTSBLUFF NE CLOUDY    74  38  27 S12G24    29.88F
6HR MIN TEMP:  36; 6HR MAX TEMP:  74;

OMAHA NE       SUNNY     60  33  36 SE13G23   30.23F
6HR MIN TEMP:  30; 6HR MAX TEMP:  61;

DES MOINES IA  MOSUNNY   58  34  40 VRB6      30.32S
6HR MIN TEMP:  34; 6HR MAX TEMP:  59;

DAVENPORT IA   SUNNY     56  33  42 CALM      30.35F
6HR MIN TEMP:  30; 6HR MAX TEMP:  56;

CHICAGO IL     MOSUNNY   50  33  52 NE12      30.35F
EAU CLAIRE WI  PTSUNNY   46  25  43 NE8       30.37F
6HR MIN TEMP:  24; 6HR MAX TEMP:  46;

LA CROSSE WI   MOSUNNY   50  27  40 W10       30.36F
6HR MIN TEMP:  29; 6HR MAX TEMP:  50;

$$

  *****  SOME NATIONAL WEATHER *****

CITY           SKY/WX    TMP DP  RH WIND       PRES   REMARKS
LA GUARDIA NY  CLOUDY    43  28  55 NE7       30.46F



USA.gov is the U.S. government's official web portal to all federal, state and local government web resources and services.